Weather History for KAEL - May, 2009

Change the Weather History Date:

Friday, May 15, 2009

  Actual Average Record
Temperature  
Mean Temperature 58 °F -  
Max Temperature 64 °F 65 °F 91 °F (2001)
Min Temperature 53 °F 45 °F 28 °F (1997)
Degree Days  
Heating Degree Days 6    
Growing Degree Days 8 (Base 50)    
Moisture  
Dew Point 52 °F    
Average Humidity 77    
Maximum Humidity 100    
Minimum Humidity 59    
Precipitation  
Precipitation 0.00 in - - ()
Sea Level Pressure  
Sea Level Pressure 29.92 in    
Wind  
Wind Speed 9 mph (SSE)    
Max Wind Speed 21 mph    
Max Gust Speed 28 mph    
Visibility 9 miles    
Events Rain , Thunderstorm    
Averages and records for this station are not official NWS values.
T = Trace of Precipitation, MM = Missing Value Source: NWS Daily Summary

Daily Weather History Graph

Daily Weather History Graph

Search for Another Location

Airport or City:

Trip Planner

Search our weather history database for the weather conditions in past years. The results will help you decide how hot, cold, wet, or windy it might be!

Date:

Astronomy

May. 15, 2009 Rise Set
Actual Time 5:48 AM CDT 8:32 PM CDT
Civil Twilight 5:14 AM CDT 9:05 PM CDT
Nautical Twilight 4:33 AM CDT 9:47 PM CDT
Astronomical Twilight 3:45 AM CDT 10:36 PM CDT
Moon 1:18 AM CDT (5/15) 11:01 AM CDT (5/15)
Length of Visible Light 15h 50m
Length of Day
14h 44m
Waning Gibbous, 65% of the Moon is Illuminated
May 15
Waning Gibbous
May 17
Last Quarter
May 24
New
May 30
First Quarter
Jun 7
Full

Hourly Weather History & Observations

Time (CDT) Temp. Dew Point Humidity Pressure Visibility Wind Dir Wind Speed Gust Speed Precip Events Conditions
12:14 AM 57.2 °F 48.2 °F 72% 30.03 in 10.0 mi SE 5.8 mph - N/A   Clear
12:34 AM 57.2 °F 48.2 °F 72% 30.03 in 10.0 mi SSE 5.8 mph - N/A   Clear
12:54 AM 57.2 °F 48.2 °F 72% 30.04 in 10.0 mi SSE 4.6 mph - N/A   Scattered Clouds
1:14 AM 57.2 °F 48.2 °F 72% 30.03 in 10.0 mi SSE 6.9 mph - N/A   Scattered Clouds
1:34 AM 57.2 °F 48.2 °F 72% 30.02 in 10.0 mi SE 9.2 mph - N/A   Clear
1:54 AM 57.2 °F 48.2 °F 72% 30.01 in 10.0 mi SSE 8.1 mph - N/A   Clear
2:14 AM 57.2 °F 48.2 °F 72% 30.03 in 10.0 mi SSE 8.1 mph - N/A   Mostly Cloudy
2:34 AM 55.4 °F 48.2 °F 77% 30.03 in 10.0 mi SSE 9.2 mph - N/A   Scattered Clouds
2:54 AM 55.4 °F 48.2 °F 77% 30.02 in 10.0 mi SSE 10.4 mph - N/A   Clear
3:14 AM 55.4 °F 48.2 °F 77% 30.01 in 10.0 mi SSE 10.4 mph - N/A   Clear
3:34 AM 55.4 °F 48.2 °F 77% 30.01 in 10.0 mi SE 8.1 mph - N/A   Clear
3:54 AM 55.4 °F 48.2 °F 77% 30.01 in 10.0 mi SE 8.1 mph - N/A   Clear
4:14 AM 55.4 °F 48.2 °F 77% 30.01 in 10.0 mi SE 9.2 mph - N/A   Clear
4:34 AM 55.4 °F 48.2 °F 77% 30.00 in 10.0 mi SE 9.2 mph - N/A   Clear
4:54 AM 53.6 °F 48.2 °F 82% 29.99 in 10.0 mi SE 10.4 mph - N/A   Clear
5:14 AM 53.6 °F 48.2 °F 82% 29.99 in 10.0 mi SE 10.4 mph - N/A   Clear
5:34 AM 53.6 °F 48.2 °F 82% 29.99 in 10.0 mi SSE 9.2 mph - N/A   Clear
5:54 AM 53.6 °F 48.2 °F 82% 29.98 in 10.0 mi SSE 9.2 mph - N/A   Clear
6:14 AM 53.6 °F 48.2 °F 82% 29.98 in 10.0 mi SSE 8.1 mph - N/A   Clear
6:34 AM 53.6 °F 48.2 °F 82% 29.97 in 10.0 mi SE 6.9 mph - N/A   Clear
6:54 AM 55.4 °F 48.2 °F 77% 29.97 in 10.0 mi SE 10.4 mph 16.1 mph N/A   Clear
7:14 AM 55.4 °F 48.2 °F 77% 29.97 in 10.0 mi SE 10.4 mph - N/A   Clear
7:34 AM 57.2 °F 48.2 °F 72% 29.96 in 10.0 mi SSE 11.5 mph - N/A   Clear
7:54 AM 57.2 °F 48.2 °F 72% 29.96 in 10.0 mi SSE 12.7 mph 19.6 mph N/A   Clear
8:14 AM 59.0 °F 48.2 °F 67% 29.95 in 10.0 mi SE 15.0 mph 20.7 mph N/A   Clear
8:34 AM 60.8 °F 48.2 °F 63% 29.94 in 10.0 mi SSE 17.3 mph 20.7 mph N/A   Clear
8:54 AM 60.8 °F 48.2 °F 63% 29.94 in 10.0 mi SSE 17.3 mph 21.9 mph N/A   Clear
9:14 AM 60.8 °F 48.2 °F 63% 29.93 in 10.0 mi SSE 15.0 mph 21.9 mph N/A   Clear
9:34 AM 62.6 °F 48.2 °F 59% 29.93 in 10.0 mi SE 16.1 mph 24.2 mph N/A   Clear
9:54 AM 62.6 °F 48.2 °F 59% 29.92 in 10.0 mi SE 13.8 mph 21.9 mph N/A   Clear
10:14 AM 64.4 °F 50.0 °F 59% 29.91 in 10.0 mi SSE 20.7 mph 27.6 mph N/A   Scattered Clouds
10:34 AM 64.4 °F 51.8 °F 64% 29.90 in 10.0 mi SE 13.8 mph 19.6 mph N/A   Scattered Clouds
10:54 AM 64.4 °F 51.8 °F 64% 29.88 in 10.0 mi SSE 17.3 mph 23.0 mph N/A   Scattered Clouds
11:14 AM 64.4 °F 51.8 °F 64% 29.88 in 10.0 mi SSE 19.6 mph 23.0 mph N/A   Overcast
11:34 AM 64.4 °F 51.8 °F 64% 29.89 in 10.0 mi SE 16.1 mph 26.5 mph N/A   Overcast
11:54 AM 62.6 °F 51.8 °F 68% 29.89 in 10.0 mi SSE 18.4 mph 26.5 mph N/A   Overcast
12:14 PM 64.4 °F 53.6 °F 68% 29.89 in 10.0 mi SSE 18.4 mph 24.2 mph N/A   Overcast
12:34 PM 62.6 °F 53.6 °F 72% 29.89 in 10.0 mi SSE 16.1 mph 21.9 mph N/A   Overcast
12:54 PM 62.6 °F 53.6 °F 72% 29.89 in 10.0 mi SSE 10.4 mph 19.6 mph N/A   Overcast
1:14 PM 60.8 °F 53.6 °F 77% 29.88 in 10.0 mi SSE 12.7 mph 23.0 mph N/A   Overcast
1:34 PM 60.8 °F 53.6 °F 77% 29.86 in 10.0 mi SSE 13.8 mph 19.6 mph N/A   Overcast
1:53 PM 60.8 °F 55.4 °F 82% 29.86 in 10.0 mi SE 16.1 mph 19.6 mph N/A   Overcast
2:14 PM 60.8 °F 55.4 °F 82% 29.85 in 10.0 mi SE 13.8 mph 19.6 mph N/A   Overcast
2:34 PM 60.8 °F 55.4 °F 82% 29.84 in 7.0 mi SSE 13.8 mph 18.4 mph N/A   Overcast
2:54 PM 59.0 °F 55.4 °F 88% 29.84 in 7.0 mi SSE 12.7 mph 17.3 mph N/A   Overcast
3:14 PM 59.0 °F 55.4 °F 88% 29.83 in 7.0 mi SSE 8.1 mph 16.1 mph N/A   Overcast
3:34 PM 60.8 °F 55.4 °F 82% 29.83 in 7.0 mi SSE 8.1 mph - N/A   Overcast
3:54 PM 60.8 °F 55.4 °F 82% 29.82 in 7.0 mi SSE 8.1 mph - N/A   Overcast
4:14 PM 60.8 °F 57.2 °F 88% 29.81 in 7.0 mi SE 8.1 mph - N/A   Overcast
4:34 PM 60.8 °F 57.2 °F 88% 29.80 in 4.0 mi SE 9.2 mph - N/A   Overcast
4:54 PM 60.8 °F 57.2 °F 88% 29.81 in 3.0 mi South 4.6 mph - N/A   Overcast
5:14 PM 60.8 °F 57.2 °F 88% 29.82 in 3.0 mi South 5.8 mph - N/A Thunderstorm Overcast
5:34 PM 60.8 °F 57.2 °F 88% 29.81 in 2.5 mi SSW 4.6 mph - N/A   Overcast
5:54 PM 60.8 °F 57.2 °F 88% 29.82 in 2.0 mi SW 3.5 mph - N/A Rain Light Rain
6:14 PM 60.8 °F 59.0 °F 94% 29.81 in 1.0 mi Calm Calm - N/A   Drizzle
6:34 PM 60.8 °F 59.0 °F 94% 29.81 in 2.0 mi Calm Calm - N/A   Overcast
6:54 PM 60.8 °F 60.8 °F 100% 29.81 in 3.0 mi Calm Calm - N/A   Overcast
7:14 PM 62.6 °F 60.8 °F 94% 29.81 in 4.0 mi Calm Calm - N/A   Overcast
7:34 PM 62.6 °F 60.8 °F 94% 29.82 in 2.5 mi West 5.8 mph - N/A Rain Heavy Rain
7:54 PM 57.2 °F 55.4 °F 94% 29.85 in 2.5 mi NW 9.2 mph 31.1 mph N/A Rain Heavy Rain
8:14 PM 57.2 °F 55.4 °F 94% 29.86 in 10.0 mi NW 10.4 mph - N/A   Drizzle
8:34 PM 55.4 °F 55.4 °F 100% 29.87 in 10.0 mi NW 11.5 mph 20.7 mph N/A   Drizzle
8:54 PM 57.2 °F 55.4 °F 94% 29.87 in 10.0 mi NW 11.5 mph - N/A   Light Drizzle
9:14 PM 55.4 °F 51.8 °F 88% 29.88 in 10.0 mi NW 16.1 mph 28.8 mph N/A   Overcast
9:34 PM 55.4 °F 48.2 °F 77% 29.89 in 10.0 mi NW 18.4 mph 25.3 mph N/A   Overcast
9:54 PM 55.4 °F 46.4 °F 72% 29.91 in 10.0 mi NW 13.8 mph 25.3 mph N/A   Overcast
10:14 PM 53.6 °F 46.4 °F 77% 29.92 in 10.0 mi NW 21.9 mph 29.9 mph N/A   Scattered Clouds
10:34 PM 53.6 °F 46.4 °F 77% 29.94 in 7.0 mi NW 17.3 mph 27.6 mph N/A   Clear
10:54 PM 51.8 °F 44.6 °F 76% 29.95 in 10.0 mi NW 21.9 mph 33.4 mph N/A   Clear
11:14 PM 50.0 °F 42.8 °F 76% 29.95 in 10.0 mi NW 20.7 mph 29.9 mph N/A   Clear
11:34 PM 48.2 °F 42.8 °F 82% 29.96 in 10.0 mi NW 23.0 mph 34.5 mph N/A   Scattered Clouds
11:54 PM 48.2 °F 42.8 °F 82% 29.98 in 10.0 mi WNW 23.0 mph 31.1 mph N/A   Mostly Cloudy